Date String (YYYY-MM-DD hh:mm:ss) UTC,Instrument flags,absolute air pressure of the measurement (hPa),sample flow rate (lpm),inlet stack bypass flow (lpm),air temperature of the measurement (°C),ambient temperature measured by the external sensor (°C),aerosol sample conditioner tube jacket temperature (°C),OPC LED temperature (°C),internal box temperature (°C),relative humidity of the measurement (%),span deviation,mass concentration of particles derived from Lorenz-Mie calculation of OPC scattering (μg/m³),mass concentration of particles derived from Lorenz-Mie calculation of OPC scattering (μg/m³),mass concentration of particles derived from Lorenz-Mie calculation of OPC scattering (μg/m³)
DateTimeUTC,F1_M11,P_M11,Q1_M11,Q2_M11,T1_M11,T2_M11,T3_M11,T4_M11,T5_M11,U1_M11,ZSPAN_M11,X0_M11,X2_M11,X1_M11
2024-03-18 23:00:00,SystemResetWarning,0832.2,5.01,000.00,022.6,021.9,000.0,030.9,024.3,12.9,0000.0,0009.13,0004.08,0003.55
2024-03-18 23:01:00,SystemResetWarning,0832.2,5.01,000.00,022.6,021.9,000.0,030.9,024.4,12.9,0000.0,0009.18,0004.11,0003.58
2024-03-18 23:02:00,SystemResetWarning,0832.2,5.00,000.00,022.6,021.9,000.0,030.9,024.4,13.6,0000.0,0009.27,0004.11,0003.58
2024-03-18 23:03:00,SystemResetWarning,0832.2,5.00,000.00,022.6,022.0,000.0,031.0,024.4,13.7,0000.0,0009.41,0004.11,0003.58
2024-03-18 23:04:00,SystemResetWarning,0832.2,4.99,000.00,022.6,022.0,000.0,031.0,024.4,14.1,0000.0,0009.37,0004.08,0003.57
2024-03-18 23:05:00,SystemResetWarning,0832.2,5.00,000.00,022.6,022.0,000.0,031.0,024.4,14.0,0000.0,0009.43,0004.04,0003.55
2024-03-18 23:06:00,SystemResetWarning,0832.2,5.00,000.00,022.6,022.0,000.0,031.0,024.4,13.3,0000.0,0009.50,0004.03,0003.53
2024-03-18 23:07:00,SystemResetWarning,0832.2,5.00,000.00,022.6,022.0,000.0,031.0,024.4,12.7,0000.0,0009.55,0004.05,0003.54
2024-03-18 23:08:00,SystemResetWarning,0832.2,5.00,000.00,022.6,022.0,000.0,031.0,024.4,12.6,0000.0,0009.06,0004.07,0003.56
2024-03-18 23:09:00,SystemResetWarning,0832.2,4.99,000.00,022.6,022.0,000.0,031.0,024.4,13.1,0000.0,0008.18,0004.08,0003.57
2024-03-18 23:10:00,SystemResetWarning,0832.2,5.01,000.00,022.7,022.0,000.0,031.0,024.4,12.7,0000.0,0008.80,0004.10,0003.58
2024-03-18 23:11:00,SystemResetWarning,0832.2,5.01,000.00,022.7,022.0,000.0,031.0,024.4,12.8,0000.0,0009.09,0004.12,0003.59
2024-03-18 23:12:00,SystemResetWarning,0832.2,5.01,000.00,022.7,022.0,000.0,031.0,024.5,13.1,0000.0,0009.09,0004.09,0003.58
2024-03-18 23:13:00,SystemResetWarning,0832.2,5.00,000.00,022.7,022.0,000.0,031.0,024.5,12.4,0000.0,0009.73,0004.12,0003.58
2024-03-18 23:14:00,SystemResetWarning,0832.2,4.99,000.00,022.7,022.1,000.0,031.0,024.5,12.6,0000.0,0009.87,0004.16,0003.59
2024-03-18 23:15:00,SystemResetWarning,0832.2,5.00,000.00,022.7,022.1,000.0,031.0,024.5,12.2,0000.0,0010.26,0004.24,0003.61
2024-03-18 23:16:00,SystemResetWarning,0832.2,5.00,000.00,022.7,022.1,000.0,031.0,024.5,12.3,0000.0,0010.24,0004.28,0003.64
2024-03-18 23:17:00,SystemResetWarning,0832.2,5.00,000.00,022.7,022.1,000.0,031.1,024.5,12.7,0000.0,0010.60,0004.28,0003.65
2024-03-18 23:18:00,SystemResetWarning,0832.2,5.01,000.00,022.7,022.1,000.0,031.1,024.5,12.4,0000.0,0010.52,0004.27,0003.64
2024-03-18 23:19:00,SystemResetWarning,0832.2,5.01,000.00,022.7,022.1,000.0,031.1,024.5,12.2,0000.0,0010.75,0004.26,0003.64
2024-03-18 23:20:00,SystemResetWarning,0832.1,4.99,000.00,022.7,022.1,000.0,031.1,024.5,12.5,0000.0,0011.20,0004.28,0003.63
2024-03-18 23:21:00,SystemResetWarning,0832.1,5.00,000.00,022.7,022.1,000.0,031.1,024.5,12.1,0000.0,0010.61,0004.30,0003.63
2024-03-18 23:22:00,SystemResetWarning,0832.1,5.00,000.00,022.8,022.1,000.0,031.1,024.5,12.3,0000.0,0010.19,0004.27,0003.62
2024-03-18 23:23:00,SystemResetWarning,0832.1,5.00,000.00,022.8,022.1,000.0,031.1,024.5,12.6,0000.0,0010.13,0004.29,0003.63
2024-03-18 23:24:00,SystemResetWarning,0832.0,5.00,000.00,022.8,022.1,000.0,031.1,024.6,12.4,0000.0,0009.96,0004.33,0003.65
2024-03-18 23:25:00,SystemResetWarning,0832.1,5.00,000.00,022.8,022.1,000.0,031.1,024.6,12.4,0000.0,0009.18,0004.33,0003.67
2024-03-18 23:26:00,SystemResetWarning,0832.0,5.00,000.00,022.8,022.1,000.0,031.1,024.6,12.4,0000.0,0009.05,0004.35,0003.71
2024-03-18 23:27:00,SystemResetWarning,0832.0,5.00,000.00,022.8,022.1,000.0,031.1,024.6,12.7,0000.0,0009.00,0004.32,0003.72
2024-03-18 23:28:00,SystemResetWarning,0832.1,5.00,000.00,022.8,022.2,000.0,031.1,024.6,12.5,0000.0,0009.22,0004.34,0003.74
2024-03-18 23:29:00,SystemResetWarning,0832.1,4.99,000.00,022.8,022.2,000.0,031.2,024.6,12.6,0000.0,0009.00,0004.37,0003.77
2024-03-18 23:30:00,SystemResetWarning,0832.0,4.99,000.00,022.8,022.2,000.0,031.2,024.6,12.5,0000.0,0009.01,0004.40,0003.80
2024-03-18 23:31:00,SystemResetWarning,0832.0,5.00,000.00,022.8,022.2,000.0,031.2,024.6,12.9,0000.0,0008.37,0004.44,0003.82
2024-03-18 23:32:00,SystemResetWarning,0832.1,5.01,000.00,022.8,022.2,000.0,031.2,024.6,12.4,0000.0,0008.55,0004.41,0003.83
2024-03-18 23:33:00,SystemResetWarning,0832.1,5.01,000.00,022.8,022.2,000.0,031.2,024.6,12.1,0000.0,0009.35,0004.47,0003.87
2024-03-18 23:34:00,SystemResetWarning,0832.1,5.00,000.00,022.8,022.2,000.0,031.2,024.6,12.0,0000.0,0009.38,0004.48,0003.90
2024-03-18 23:35:00,SystemResetWarning,0832.0,4.99,000.00,022.9,022.2,000.0,031.2,024.6,12.3,0000.0,0009.46,0004.47,0003.91
2024-03-18 23:36:00,SystemResetWarning,0832.0,5.00,000.00,022.9,022.2,000.0,031.2,024.7,12.7,0000.0,0009.89,0004.48,0003.92
2024-03-18 23:37:00,SystemResetWarning,0832.0,5.01,000.00,022.9,022.2,000.0,031.2,024.7,12.5,0000.0,0010.02,0004.48,0003.90
2024-03-18 23:38:00,SystemResetWarning,0832.0,5.00,000.00,022.9,022.2,000.0,031.2,024.7,12.8,0000.0,0009.79,0004.45,0003.89
2024-03-18 23:39:00,SystemResetWarning,0832.0,4.99,000.00,022.9,022.2,000.0,031.3,024.7,13.3,0000.0,0009.38,0004.40,0003.86
2024-03-18 23:40:00,SystemResetWarning,0832.0,5.00,000.00,022.9,022.3,000.0,031.3,024.7,12.3,0000.0,0009.07,0004.38,0003.86
2024-03-18 23:41:00,SystemResetWarning,0832.0,4.99,000.00,022.9,022.3,000.0,031.3,024.7,12.3,0000.0,0008.96,0004.35,0003.84
2024-03-18 23:42:00,SystemResetWarning,0832.1,5.00,000.00,022.9,022.3,000.0,031.3,024.8,12.0,0000.0,0008.86,0004.30,0003.82
2024-03-18 23:43:00,SystemResetWarning,0832.0,5.00,000.00,022.9,022.3,000.0,031.3,024.8,11.7,0000.0,0008.65,0004.30,0003.80
2024-03-18 23:44:00,SystemResetWarning,0832.0,5.01,000.00,022.9,022.3,000.0,031.3,024.8,12.0,0000.0,0008.45,0004.29,0003.78
2024-03-18 23:45:00,SystemResetWarning,0832.0,5.00,000.00,023.0,022.3,000.0,031.3,024.8,12.0,0000.0,0008.55,0004.26,0003.75
2024-03-18 23:46:00,SystemResetWarning,0832.0,4.98,000.00,023.0,022.4,000.0,031.3,024.8,11.9,0000.0,0008.37,0004.22,0003.71
2024-03-18 23:47:00,SystemResetWarning,0832.0,5.00,000.00,023.0,022.4,000.0,031.3,024.8,11.9,0000.0,0008.07,0004.23,0003.71
2024-03-18 23:48:00,SystemResetWarning,0832.0,5.01,000.00,023.0,022.4,000.0,031.3,024.8,12.2,0000.0,0007.87,0004.21,0003.72
2024-03-18 23:49:00,SystemResetWarning,0832.0,5.00,000.00,023.0,022.4,000.0,031.3,024.8,12.3,0000.0,0008.02,0004.25,0003.74
2024-03-18 23:50:00,SystemResetWarning,0831.9,5.00,000.00,023.0,022.4,000.0,031.4,024.8,12.0,0000.0,0008.37,0004.33,0003.78
2024-03-18 23:51:00,SystemResetWarning,0831.9,4.99,000.00,023.0,022.4,000.0,031.4,024.8,12.2,0000.0,0008.51,0004.33,0003.79
2024-03-18 23:52:00,SystemResetWarning,0831.9,4.99,000.00,023.0,022.4,000.0,031.4,024.8,12.4,0000.0,0008.91,0004.34,0003.78
2024-03-18 23:53:00,SystemResetWarning,0831.9,5.00,000.00,023.0,022.4,000.0,031.4,024.9,12.5,0000.0,0009.10,0004.38,0003.80
2024-03-18 23:54:00,SystemResetWarning,0831.9,5.01,000.00,023.0,022.4,000.0,031.4,024.9,12.3,0000.0,0009.90,0004.39,0003.80
2024-03-18 23:55:00,SystemResetWarning,0831.9,5.01,000.00,023.1,022.5,000.0,031.4,024.9,12.1,0000.0,0009.54,0004.34,0003.78
2024-03-18 23:56:00,SystemResetWarning,0831.9,5.01,000.00,023.1,022.5,000.0,031.4,024.9,12.2,0000.0,0009.54,0004.30,0003.76
2024-03-18 23:57:00,SystemResetWarning,0831.9,5.00,000.00,023.1,022.5,000.0,031.4,024.9,12.6,0000.0,0009.58,0004.28,0003.75
2024-03-18 23:58:00,SystemResetWarning,0831.9,5.00,000.00,023.1,022.5,000.0,031.4,024.9,12.4,0000.0,0009.57,0004.22,0003.70
2024-03-18 23:59:00,SystemResetWarning,0831.9,5.00,000.00,023.1,022.6,000.0,031.5,025.0,12.3,0000.0,0010.18,0004.17,0003.65
